Flag for Austria Past Weather in St. Veit an der Glan, Carinthia, Austria — Yesterday and Last 2 Weeks

Now
67 °F

Low clouds.


Feels Like: 67 °F
Forecast: 57 / 80 °F
Wind: N/A

Location: Klagenfurt-Flughafen

Current Time: Jul 28, 2016 at 8:20:42 PM

Latest Report: Jul 28, 2016 at 7:00 PM


Visibility: 25 mi

Pressure: 30.01 "Hg

Humidity: 83%

Dew Point: 62 °F

Location of St. Veit an der GlanLocation

Past Weather in St. Veit an der Glan — Graph

°F

St. Veit an der Glan Temperature Yesterday

Maximum temperature yesterday: 79 °F (at 3:00 PM)
Minimum temperature yesterday: 63 °F (at 6:00 AM)
Average temperature yesterday: 68 °F

High & Low Weather Summary for the Past Weeks

 TemperatureHumidityPressure
High86 °F (Jul 20, 5:00 PM)96% (Jul 27, 4:00 AM)30.20 "Hg (Jul 27, 4:00 AM)
Low48 °F (Jul 16, 6:00 AM)31% (Jul 14, 5:00 PM)29.79 "Hg (Jul 13, 11:00 PM)
Average68 °F71%30.03 "Hg
* Reported Jul 13 7:00 PM — Jul 28 7:00 PM, St. Veit an der Glan, Weather by CustomWeather, © 2016

Note: Actual official high and low records may vary slightly from our data, if they occured in-between our weather recording intervals... More about our weather records

Advertising

St. Veit an der Glan Weather History for the Previous 24 Hours

Scroll right to see more
 ConditionsComfort  
Time TempWeatherWind HumidityBarometerVisibility
7:00 PM
Thu, Jul 28
67 °FLow clouds.N/A83%30.01 "Hg25 mi
6:00 PM66 °FRain showers. Low clouds.N/A84%30.00 "Hg11 mi
5:00 PM69 °FSprinkles. Overcast.N/A80%30.00 "Hg11 mi
4:00 PM75 °FOvercast.N/A60%29.96 "Hg25 mi
3:00 PM77 °FOvercast.N/A51%29.94 "Hg25 mi
2:00 PM76 °FOvercast.N/A54%29.96 "Hg19 mi
1:00 PM75 °FOvercast.N/A60%29.97 "Hg25 mi
12:00 PM74 °FOvercast.N/A61%30.00 "Hg25 mi
11:00 AM72 °FScattered clouds.N/A66%30.01 "Hg14 mi
10:00 AM69 °FPartly sunny.N/A77%30.03 "Hg15 mi
9:00 AM66 °FLow clouds.N/A86%30.04 "Hg12 mi
8:00 AM65 °FPartly sunny.N/A91%30.04 "Hg14 mi
7:00 AM64 °FLow clouds.N/A93%30.03 "Hg7 mi
6:00 AM64 °FLow clouds.N/A95%30.03 "Hg6 mi
5:00 AM64 °FOvercast.N/A93%30.02 "Hg9 mi
4:00 AM64 °FOvercast.N/A95%30.02 "Hg7 mi
3:00 AM64 °FOvercast.N/A94%30.04 "Hg10 mi
2:00 AM64 °FLight rain. Low clouds.N/A94%30.04 "Hg6 mi
1:00 AM64 °FLow clouds.N/A93%30.04 "Hg7 mi
12:00 AM64 °FLow clouds.N/A93%30.03 "Hg10 mi
11:00 PM
Wed, Jul 27
64 °FPassing clouds.N/A93%30.03 "Hg11 mi
10:00 PM65 °FPassing clouds.No wind94%30.01 "Hg2 mi
9:00 PM66 °FLight rain. Overcast.N/A93%30.00 "Hg4 mi
8:00 PM66 °FRain showers. Low clouds.N/A93%30.00 "Hg16 mi
Weather by CustomWeather, © 2016

See weather overviewHow to use our weather pages